�������l�o���
Date,Time,MP-1(��Sv/h),MP-2(��Sv/h),MP-3(��Sv/h),MP-4(��Sv/h),MP-5(��Sv/h),MP-6(��Sv/h),MP-7(��Sv/h),MP-8(��Sv/h),����,����(m/s),���J
2018/03/10,00:00,0.819,1.365,0.849,1.598,1.047,0.471,0.831,0.804,�k,9.6,�L
2018/03/10,00:10,0.819,1.368,0.852,1.597,1.048,0.471,0.830,0.804,�k,11.0,�L
2018/03/10,00:20,0.820,1.367,0.851,1.598,1.048,0.471,0.832,0.802,�k,10.5,�L
2018/03/10,00:30,0.819,1.366,0.852,1.600,1.048,0.472,0.831,0.802,�k,10.0,�L
2018/03/10,00:40,0.820,1.367,0.852,1.600,1.050,0.472,0.831,0.801,�k,9.7,�L
2018/03/10,00:50,0.818,1.369,0.850,1.598,1.052,0.471,0.829,0.803,�k,9.3,��
2018/03/10,01:00,0.819,1.367,0.849,1.599,1.049,0.471,0.830,0.804,�k,9.4,��
2018/03/10,01:10,0.820,1.369,0.850,1.598,1.050,0.470,0.831,0.802,�k,9.2,�L
2018/03/10,01:20,0.820,1.369,0.849,1.597,1.049,0.469,0.831,0.802,�k�k��,8.8,�L
2018/03/10,01:30,0.820,1.365,0.850,1.599,1.047,0.470,0.832,0.803,�k,8.0,�L
2018/03/10,01:40,0.819,1.368,0.849,1.599,1.050,0.470,0.831,0.802,�k,7.8,�L
2018/03/10,01:50,0.820,1.366,0.850,1.601,1.050,0.469,0.830,0.802,�k,8.2,��
2018/03/10,02:00,0.818,1.368,0.850,1.598,1.050,0.471,0.832,0.802,�k�k��,9.6,�L
2018/03/10,02:10,0.820,1.368,0.850,1.600,1.050,0.468,0.830,0.802,�k,8.5,�L
2018/03/10,02:20,0.818,1.368,0.850,1.602,1.051,0.470,0.830,0.803,�k,7.9,�L
2018/03/10,02:30,0.819,1.368,0.851,1.600,1.048,0.470,0.831,0.804,�k,8.3,�L
2018/03/10,02:40,0.818,1.366,0.849,1.599,1.054,0.471,0.831,0.802,�k�k��,9.2,�L
2018/03/10,02:50,0.819,1.369,0.849,1.600,1.051,0.469,0.832,0.804,�k,8.1,�L
2018/03/10,03:00,0.820,1.369,0.849,1.602,1.051,0.471,0.833,0.805,�k�k��,7.0,�L
2018/03/10,03:10,0.817,1.367,0.849,1.602,1.054,0.472,0.831,0.802,�k,6.9,�L
2018/03/10,03:20,0.820,1.368,0.851,1.599,1.051,0.472,0.833,0.804,�k,7.4,�L
2018/03/10,03:30,0.819,1.369,0.849,1.600,1.052,0.469,0.830,0.804,�k,6.8,�L
2018/03/10,03:40,0.820,1.371,0.850,1.603,1.052,0.471,0.832,0.803,�k,8.3,�L
2018/03/10,03:50,0.820,1.369,0.851,1.603,1.052,0.470,0.832,0.802,�k,7.3,��
2018/03/10,04:00,0.817,1.367,0.850,1.601,1.051,0.470,0.830,0.801,�k,7.1,��
2018/03/10,04:10,0.819,1.369,0.850,1.600,1.052,0.471,0.831,0.803,�k,6.3,��
2018/03/10,04:20,0.818,1.370,0.851,1.598,1.053,0.470,0.832,0.803,�k,6.6,��
2018/03/10,04:30,0.818,1.371,0.851,1.599,1.050,0.470,0.832,0.803,�k,7.7,�L
2018/03/10,04:40,0.818,1.367,0.852,1.604,1.054,0.469,0.832,0.803,�k,7.0,�L
2018/03/10,04:50,0.817,1.368,0.851,1.602,1.051,0.470,0.831,0.804,�k,8.4,�L
2018/03/10,05:00,0.819,1.368,0.849,1.598,1.056,0.471,0.833,0.802,�k,7.6,�L
2018/03/10,05:10,0.818,1.369,0.849,1.601,1.051,0.470,0.832,0.802,�k�k��,8.1,��
2018/03/10,05:20,0.822,1.369,0.852,1.603,1.052,0.470,0.833,0.803,�k�k��,8.8,��
2018/03/10,05:30,0.819,1.368,0.851,1.600,1.052,0.468,0.831,0.802,�k�k��,7.1,��
2018/03/10,05:40,0.820,1.370,0.850,1.600,1.055,0.469,0.831,0.803,�k,7.0,��
2018/03/10,05:50,0.818,1.368,0.854,1.602,1.052,0.468,0.832,0.802,�k,7.5,��
2018/03/10,06:00,0.820,1.367,0.850,1.600,1.051,0.470,0.832,0.802,�k,7.0,��
2018/03/10,06:10,0.820,1.368,0.850,1.601,1.054,0.469,0.834,0.802,�k,7.5,��
2018/03/10,06:20,0.818,1.369,0.850,1.603,1.053,0.469,0.833,0.802,�k,8.1,��
2018/03/10,06:30,0.818,1.371,0.850,1.601,1.056,0.468,0.835,0.801,�k�k��,7.3,��
2018/03/10,06:40,0.818,1.370,0.850,1.603,1.055,0.470,0.832,0.801,�k,7.3,��
2018/03/10,06:50,0.818,1.366,0.851,1.603,1.056,0.468,0.831,0.804,�k�k��,8.7,��
2018/03/10,07:00,0.820,1.371,0.851,1.602,1.053,0.468,0.833,0.804,�k�k��,7.8,��
2018/03/10,07:10,0.818,1.369,0.851,1.603,1.055,0.471,0.835,0.802,�k�k��,8.1,��
2018/03/10,07:20,0.818,1.371,0.852,1.604,1.057,0.469,0.835,0.803,�k�k��,9.0,��
2018/03/10,07:30,0.820,1.368,0.850,1.604,1.058,0.469,0.831,0.803,�k�k��,7.8,��
2018/03/10,07:40,0.818,1.372,0.852,1.607,1.055,0.468,0.832,0.803,�k�k��,8.2,��
2018/03/10,07:50,0.820,1.370,0.854,1.604,1.058,0.469,0.832,0.803,�k�k��,7.4,��
2018/03/10,08:00,0.821,1.368,0.852,1.604,1.059,0.470,0.833,0.803,�k,7.1,��
2018/03/10,08:10,0.822,1.373,0.853,1.606,1.059,0.469,0.832,0.804,�k,7.7,��
2018/03/10,08:20,0.820,1.374,0.853,1.606,1.057,0.469,0.830,0.804,�k�k��,9.2,��
2018/03/10,08:30,0.820,1.371,0.852,1.607,1.059,0.469,0.831,0.804,�k�k��,8.4,��
2018/03/10,08:40,0.820,1.372,0.854,1.605,1.057,0.468,0.833,0.804,�k,6.6,��
2018/03/10,08:50,0.820,1.373,0.853,1.608,1.059,0.469,0.831,0.804,�k,6.3,��
2018/03/10,09:00,0.821,1.372,0.853,1.606,1.059,0.472,0.832,0.806,�k,5.2,��
2018/03/10,09:10,0.823,1.374,0.853,1.609,1.061,0.470,0.833,0.806,�k,6.4,��
2018/03/10,09:20,0.822,1.376,0.856,1.610,1.061,0.471,0.833,0.805,�k�k��,7.0,��
2018/03/10,09:30,0.823,1.376,0.851,1.609,1.062,0.470,0.831,0.806,�k,6.6,��
2018/03/10,09:40,0.821,1.375,0.853,1.609,1.059,0.470,0.833,0.804,�k,6.4,��
2018/03/10,09:50,0.822,1.378,0.855,1.611,1.062,0.469,0.833,0.805,�k,6.9,��
2018/03/10,10:00,0.825,1.377,0.855,1.607,1.065,0.470,0.831,0.806,�k�k��,8.0,��
2018/03/10,10:10,0.820,1.375,0.854,1.608,1.063,0.471,0.831,0.804,�k�k��,8.2,��
2018/03/10,10:20,0.822,1.377,0.856,1.610,1.065,0.471,0.832,0.805,�k,9.4,��
2018/03/10,10:30,0.824,1.377,0.856,1.609,1.063,0.471,0.832,0.807,�k�k��,7.5,��
2018/03/10,10:40,0.825,1.380,0.858,1.613,1.065,0.470,0.832,0.806,�k�k��,7.5,��
2018/03/10,10:50,0.825,1.378,0.857,1.612,1.068,0.471,0.830,0.806,�k�k��,7.4,��
2018/03/10,11:00,0.825,1.381,0.858,1.612,1.068,0.472,0.832,0.805,�k�k��,6.7,��
2018/03/10,11:10,0.826,1.382,0.857,1.615,1.066,0.473,0.833,0.807,�k�k��,6.8,��
2018/03/10,11:20,0.826,1.376,0.858,1.614,1.068,0.472,0.833,0.806,�k�k��,7.8,��
2018/03/10,11:30,0.825,1.379,0.860,1.614,1.069,0.472,0.832,0.807,�k,6.0,��
2018/03/10,11:40,0.828,1.379,0.858,1.614,1.067,0.471,0.833,0.806,�k,7.0,��
2018/03/10,11:50,0.827,1.379,0.858,1.614,1.067,0.472,0.833,0.808,�k�k��,6.6,��
2018/03/10,12:00,0.827,1.380,0.861,1.616,1.071,0.472,0.833,0.805,�k�k��,6.4,��
2018/03/10,12:10,0.826,1.381,0.859,1.613,1.069,0.469,0.833,0.805,�k,5.8,��
2018/03/10,12:20,0.827,1.381,0.859,1.614,1.068,0.471,0.833,0.808,�k,7.6,��
2018/03/10,12:30,0.827,1.382,0.860,1.616,1.067,0.472,0.834,0.808,�k�k��,8.2,��
2018/03/10,12:40,0.827,1.382,0.860,1.613,1.070,0.471,0.834,0.808,�k�k��,7.6,��
2018/03/10,12:50,0.828,1.383,0.861,1.616,1.069,0.471,0.833,0.808,�k�k��,8.8,��
2018/03/10,13:00,0.827,1.382,0.862,1.617,1.069,0.472,0.833,0.807,�k�k��,9.4,��
2018/03/10,13:10,0.828,1.387,0.858,1.618,1.070,0.472,0.833,0.806,�k�k��,10.2,��
2018/03/10,13:20,0.828,1.383,0.860,1.620,1.069,0.471,0.833,0.807,�k�k��,10.5,��
2018/03/10,13:30,0.827,1.385,0.860,1.615,1.069,0.471,0.835,0.809,�k�k��,10.2,��
2018/03/10,13:40,0.829,1.386,0.863,1.616,1.072,0.472,0.833,0.807,�k�k��,10.5,��
2018/03/10,13:50,0.828,1.385,0.862,1.617,1.070,0.472,0.834,0.808,�k�k��,9.8,��
2018/03/10,14:00,0.829,1.390,0.862,1.619,1.072,0.473,0.833,0.808,�k�k��,8.9,��
2018/03/10,14:10,0.828,1.387,0.861,1.618,1.074,0.473,0.831,0.806,�k�k��,9.3,��
2018/03/10,14:20,0.829,1.387,0.861,1.615,1.070,0.472,0.833,0.805,�k�k��,9.2,��
2018/03/10,14:30,0.829,1.385,0.860,1.620,1.074,0.471,0.834,0.807,�k�k��,9.4,��
2018/03/10,14:40,0.830,1.385,0.862,1.618,1.073,0.472,0.834,0.808,�k,9.3,��
2018/03/10,14:50,0.828,1.384,0.863,1.617,1.074,0.472,0.835,0.809,�k�k��,9.9,��
2018/03/10,15:00,0.829,1.389,0.862,1.617,1.074,0.473,0.832,0.807,�k�k��,9.1,��
2018/03/10,15:10,0.829,1.391,0.863,1.620,1.074,0.472,0.833,0.807,�k�k��,10.2,��
2018/03/10,15:20,0.829,1.388,0.863,1.618,1.074,0.471,0.834,0.806,�k�k��,10.3,��
2018/03/10,15:30,0.830,1.390,0.862,1.619,1.075,0.473,0.835,0.809,�k�k��,10.0,��
2018/03/10,15:40,0.829,1.390,0.864,1.619,1.072,0.473,0.834,0.808,�k�k��,10.5,��
2018/03/10,15:50,0.830,1.387,0.863,1.618,1.074,0.471,0.834,0.806,�k�k��,8.9,��
2018/03/10,16:00,0.830,1.391,0.862,1.619,1.071,0.472,0.836,0.809,�k�k��,9.3,��
2018/03/10,16:10,0.830,1.393,0.862,1.621,1.075,0.472,0.836,0.807,�k�k��,10.5,��
2018/03/10,16:20,0.830,1.391,0.862,1.622,1.075,0.472,0.836,0.808,�k�k��,9.6,��
2018/03/10,16:30,0.832,1.390,0.864,1.621,1.077,0.472,0.836,0.808,�k�k��,7.8,��
2018/03/10,16:40,0.832,1.391,0.863,1.621,1.076,0.472,0.838,0.807,�k�k��,8.1,��
2018/03/10,16:50,0.828,1.391,0.864,1.618,1.074,0.472,0.836,0.808,�k�k��,8.6,��
2018/03/10,17:00,0.830,1.389,0.865,1.621,1.075,0.472,0.839,0.808,�k�k��,7.0,��
2018/03/10,17:10,0.831,1.392,0.864,1.622,1.076,0.473,0.838,0.808,�k�k��,6.2,��
2018/03/10,17:20,0.830,1.389,0.864,1.621,1.074,0.472,0.837,0.808,�k�k��,6.0,��
2018/03/10,17:30,0.830,1.391,0.861,1.620,1.075,0.472,0.837,0.809,�k�k��,5.3,��
2018/03/10,17:40,0.829,1.390,0.863,1.621,1.075,0.472,0.838,0.807,�k�k��,4.9,��
2018/03/10,17:50,0.831,1.391,0.862,1.620,1.076,0.473,0.839,0.809,�k��,7.1,��
2018/03/10,18:00,0.828,1.392,0.864,1.622,1.076,0.473,0.838,0.808,�k��,6.5,��
2018/03/10,18:10,0.829,1.392,0.863,1.622,1.077,0.471,0.836,0.808,�k��,6.5,��
2018/03/10,18:20,0.830,1.391,0.863,1.620,1.076,0.471,0.839,0.808,�k��,6.9,��
2018/03/10,18:30,0.829,1.390,0.863,1.622,1.076,0.472,0.836,0.808,�k��,6.1,��
2018/03/10,18:40,0.828,1.390,0.863,1.621,1.073,0.472,0.837,0.808,�k��,6.2,��
2018/03/10,18:50,0.827,1.389,0.862,1.620,1.075,0.471,0.837,0.807,���k��,5.9,��
2018/03/10,19:00,0.826,1.390,0.864,1.623,1.074,0.471,0.836,0.808,���k��,6.7,��
2018/03/10,19:10,0.827,1.389,0.862,1.622,1.075,0.472,0.837,0.807,���k��,7.1,��
2018/03/10,19:20,0.827,1.391,0.863,1.622,1.075,0.473,0.837,0.807,���k��,6.8,��
2018/03/10,19:30,0.827,1.393,0.862,1.621,1.075,0.471,0.839,0.806,���k��,6.3,��
2018/03/10,19:40,0.829,1.393,0.863,1.621,1.073,0.471,0.836,0.806,���k��,6.3,��
2018/03/10,19:50,0.827,1.393,0.861,1.623,1.075,0.474,0.839,0.806,���k��,7.2,��
2018/03/10,20:00,0.827,1.390,0.862,1.620,1.075,0.470,0.837,0.807,���k��,6.5,��
2018/03/10,20:10,0.827,1.391,0.863,1.621,1.077,0.472,0.839,0.808,���k��,6.0,��
2018/03/10,20:20,0.828,1.391,0.863,1.622,1.074,0.472,0.836,0.809,���k��,5.9,��
2018/03/10,20:30,0.827,1.391,0.861,1.623,1.077,0.471,0.836,0.807,���k��,4.8,��
2018/03/10,20:40,0.827,1.394,0.861,1.621,1.074,0.471,0.837,0.807,�k��,5.2,��
2018/03/10,20:50,0.828,1.392,0.864,1.621,1.075,0.470,0.837,0.805,�k��,4.7,��
2018/03/10,21:00,0.827,1.388,0.863,1.620,1.075,0.471,0.838,0.807,�k��,4.7,��
2018/03/10,21:10,0.826,1.392,0.862,1.623,1.075,0.472,0.836,0.806,�k��,5.1,��
2018/03/10,21:20,0.826,1.391,0.860,1.626,1.076,0.471,0.836,0.808,�k��,5.3,��
2018/03/10,21:30,0.826,1.392,0.862,1.620,1.074,0.471,0.837,0.809,�k��,4.2,��
2018/03/10,21:40,0.827,1.389,0.862,1.620,1.077,0.472,0.836,0.807,�k��,4.3,��
2018/03/10,21:50,0.826,1.390,0.862,1.622,1.075,0.471,0.836,0.807,�k�k��,4.5,��
2018/03/10,22:00,0.824,1.391,0.862,1.623,1.075,0.472,0.834,0.806,�k��,5.3,��
2018/03/10,22:10,0.825,1.391,0.862,1.620,1.075,0.470,0.834,0.806,�k�k��,6.4,��
2018/03/10,22:20,0.825,1.392,0.862,1.621,1.075,0.471,0.835,0.805,�k�k��,5.9,��
2018/03/10,22:30,0.825,1.389,0.862,1.624,1.075,0.469,0.837,0.807,�k�k��,5.7,��
2018/03/10,22:40,0.826,1.390,0.861,1.621,1.076,0.471,0.836,0.807,�k�k��,5.0,��
2018/03/10,22:50,0.827,1.390,0.862,1.620,1.075,0.471,0.836,0.807,�k�k��,4.9,��
2018/03/10,23:00,0.825,1.391,0.862,1.622,1.075,0.469,0.835,0.805,�k�k��,4.1,��
2018/03/10,23:10,0.827,1.390,0.862,1.623,1.076,0.470,0.837,0.810,�k�k��,4.0,��
2018/03/10,23:20,0.824,1.391,0.860,1.623,1.075,0.472,0.836,0.807,�k�k��,4.9,��
2018/03/10,23:30,0.827,1.391,0.860,1.621,1.076,0.471,0.835,0.807,�k�k��,4.3,��
2018/03/10,23:40,0.824,1.390,0.862,1.623,1.076,0.469,0.834,0.806,�k�k��,4.6,��
2018/03/10,23:50,0.824,1.390,0.862,1.621,1.077,0.471,0.837,0.806,�k�k��,4.4,��
